TimeEDT,TemperatureF,Dew PointF,Humidity,Sea Level PressureIn,VisibilityMPH,Wind Direction,Wind SpeedMPH,Gust SpeedMPH,PrecipitationIn,Events,Conditions,WindDirDegrees,DateUTC
12:53 AM,64.0,62.1,93,29.83,8.0,SSW,5.8,-,N/A,,Clear,200,2013-06-11 04:53:00
1:53 AM,64.9,62.1,90,29.82,9.0,SSW,6.9,-,N/A,,Scattered Clouds,200,2013-06-11 05:53:00
2:53 AM,64.9,62.1,90,29.82,10.0,SW,4.6,-,N/A,,Mostly Cloudy,230,2013-06-11 06:53:00
3:53 AM,64.0,61.0,90,29.82,9.0,WSW,6.9,-,N/A,,Mostly Cloudy,240,2013-06-11 07:53:00
4:53 AM,63.0,61.0,93,29.83,8.0,SW,4.6,-,N/A,,Clear,230,2013-06-11 08:53:00
5:51 AM,62.6,60.8,94,29.85,9.0,WSW,6.9,-,N/A,,Mostly Cloudy,240,2013-06-11 09:51:00
5:53 AM,63.0,61.0,93,29.84,9.0,WSW,6.9,-,N/A,,Mostly Cloudy,250,2013-06-11 09:53:00
6:48 AM,64.4,62.6,94,29.88,5.0,WSW,5.8,-,N/A,,Overcast,250,2013-06-11 10:48:00
6:53 AM,64.0,62.1,93,29.87,5.0,WSW,4.6,-,N/A,,Overcast,250,2013-06-11 10:53:00
7:53 AM,66.0,63.0,90,29.88,4.0,West,4.6,-,N/A,,Overcast,270,2013-06-11 11:53:00
8:53 AM,66.9,62.1,84,29.90,7.0,West,9.2,17.3,N/A,,Overcast,270,2013-06-11 12:53:00
9:53 AM,69.1,62.1,78,29.90,9.0,West,9.2,-,N/A,,Overcast,280,2013-06-11 13:53:00
10:53 AM,69.1,62.1,78,29.91,10.0,NW,9.2,-,N/A,,Overcast,310,2013-06-11 14:53:00
11:53 AM,70.0,61.0,73,29.92,10.0,WNW,10.4,-,N/A,,Overcast,290,2013-06-11 15:53:00
12:07 PM,71.6,62.6,73,29.93,10.0,West,10.4,-,N/A,,Overcast,280,2013-06-11 16:07:00
12:53 PM,75.0,62.1,64,29.91,10.0,West,9.2,-,N/A,,Mostly Cloudy,260,2013-06-11 16:53:00
1:53 PM,78.1,62.1,58,29.91,10.0,WNW,10.4,-,N/A,,Scattered Clouds,290,2013-06-11 17:53:00
2:53 PM,79.0,61.0,54,29.91,10.0,WNW,10.4,-,N/A,,Partly Cloudy,300,2013-06-11 18:53:00
3:53 PM,79.0,61.0,54,29.91,10.0,WNW,11.5,-,N/A,,Partly Cloudy,300,2013-06-11 19:53:00
4:53 PM,81.0,62.1,52,29.90,10.0,WNW,8.1,-,N/A,,Scattered Clouds,290,2013-06-11 20:53:00
5:53 PM,81.0,62.1,52,29.89,10.0,WNW,10.4,-,N/A,,Scattered Clouds,290,2013-06-11 21:53:00
6:53 PM,81.0,62.1,52,29.88,10.0,WNW,9.2,-,N/A,,Clear,290,2013-06-11 22:53:00
7:53 PM,79.0,62.1,56,29.88,10.0,WSW,4.6,-,N/A,,Clear,250,2013-06-11 23:53:00
8:53 PM,75.0,63.0,66,29.88,10.0,SSW,3.5,-,N/A,,Scattered Clouds,210,2013-06-12 00:53:00
9:53 PM,73.0,64.0,73,29.88,10.0,SSW,4.6,-,N/A,,Partly Cloudy,210,2013-06-12 01:53:00
10:53 PM,71.1,64.0,78,29.87,10.0,South,5.8,-,N/A,,Clear,190,2013-06-12 02:53:00
11:53 PM,72.0,64.0,76,29.89,10.0,WSW,5.8,-,N/A,,Clear,250,2013-06-12 03:53:00